Date,TemperatureHighF,TemperatureAvgF,TemperatureLowF,DewpointHighF,DewpointAvgF,DewpointLowF,HumidityHigh,HumidityAvg,HumidityLow,PressureMaxIn,PressureMinIn,WindSpeedMaxMPH,WindSpeedAvgMPH,GustSpeedMaxMPH,PrecipitationSumIn
2013-1-1,22,20,17,19,17,14,88,87,86,30.67,30.48,2,0,3,0.00
2013-1-2,24,21,18,20,17,14,88,85,78,30.66,30.52,4,0,6,0.00
2013-1-3,28,20,15,20,16,12,88,84,73,30.52,30.38,3,1,5,0.00
2013-1-4,27,23,19,22,19,15,87,85,81,30.47,30.42,6,0,6,0.00
2013-1-5,33,27,24,27,24,21,89,86,78,30.45,30.22,11,1,17,0.01
2013-1-6,32,28,25,28,25,22,89,86,80,30.22,30.10,16,3,23,0.00
2013-1-7,37,34,30,33,30,27,90,87,80,30.09,29.84,30,10,48,0.01
2013-1-8,44,36,32,37,31,28,90,81,73,30.13,29.84,43,12,51,0.05
2013-1-9,48,41,31,35,31,26,83,69,46,29.84,29.58,47,23,57,0.02
2013-1-10,31,27,24,26,23,21,88,84,77,29.90,29.73,12,2,17,0.00
2013-1-11,29,24,17,22,14,10,88,66,49,30.27,29.91,12,3,17,0.00
2013-1-12,20,18,14,17,14,11,87,84,79,30.40,30.26,5,1,8,0.00
2013-1-13,22,16,14,15,12,10,87,81,71,30.51,30.40,3,0,4,0.00
2013-1-14,22,19,16,18,15,11,86,84,79,30.54,30.40,3,0,6,0.00
2013-1-15,33,25,21,27,21,16,88,84,78,30.66,30.52,4,0,5,0.00
2013-1-16,33,26,19,27,22,16,89,85,75,30.63,30.57,5,1,6,0.04
2013-1-17,27,21,16,23,17,12,89,86,84,30.61,30.44,2,0,5,0.00
2013-1-18,29,24,17,23,18,14,88,81,73,30.43,30.32,6,0,7,0.00
2013-1-19,36,26,21,26,20,17,88,79,67,30.49,30.40,3,0,5,0.02
2013-1-20,35,27,22,25,21,19,88,80,68,30.55,30.43,4,0,6,0.02
2013-1-21,30,22,14,25,18,11,88,85,76,30.44,30.33,3,0,4,0.00
2013-1-22,24,19,13,21,16,9,88,86,84,30.38,30.24,2,0,5,0.00
2013-1-23,38,27,21,34,24,18,90,87,81,30.24,29.98,24,2,39,0.13
2013-1-24,34,28,23,32,24,20,90,87,81,30.31,30.12,12,1,14,0.01
2013-1-25,42,38,31,37,35,28,90,87,79,30.19,29.90,17,4,27,0.40
2013-1-26,38,33,29,35,30,26,90,86,79,29.96,29.84,14,4,20,0.00
2013-1-27,31,28,26,28,25,23,90,88,83,30.02,29.95,11,2,17,0.00
2013-1-28,30,28,26,27,25,23,89,88,85,29.97,29.88,10,4,17,0.00
2013-1-29,34,31,27,31,26,23,90,83,64,30.22,29.90,9,2,21,0.05
2013-1-30,41,36,33,36,32,30,89,86,80,30.25,30.14,15,7,21,0.10
2013-1-31,42,38,34,36,34,31,89,84,76,30.27,30.16,20,6,25,0.02
2013-2-1,43,35,31,34,30,28,90,82,67,30.45,30.19,13,1,14,0.00
2013-2-2,36,30,26,33,27,23,90,87,77,30.50,30.28,4,0,8,0.00
2013-2-3,38,32,24,33,29,21,90,87,81,30.28,30.13,5,1,11,0.01
2013-2-4,43,37,33,34,31,30,89,80,66,30.14,29.97,12,3,20,0.00
2013-2-5,43,38,32,34,32,29,88,78,60,29.97,29.82,22,7,31,0.00
2013-2-6,41,37,33,33,30,27,85,76,62,30.06,29.91,24,7,30,0.00
2013-2-7,39,36,31,33,29,24,89,77,58,30.03,29.90,7,2,12,0.03
2013-2-8,34,32,30,30,28,26,89,87,82,30.14,30.03,8,2,10,0.00
2013-2-9,32,29,26,28,25,23,89,86,81,30.22,30.07,5,1,8,0.00
2013-2-10,31,28,23,27,24,20,89,86,82,30.32,30.22,3,0,3,0.00
2013-2-11,38,32,27,29,27,23,85,80,68,30.26,30.21,6,1,13,0.02
2013-2-12,40,35,29,34,30,26,88,81,72,30.31,30.17,32,7,35,0.05
2013-2-13,45,38,34,33,29,22,86,69,53,30.34,30.14,17,7,27,0.00
2013-2-14,41,35,29,31,27,22,81,72,62,30.55,30.34,6,1,9,0.00
2013-2-15,48,39,32,34,30,27,84,73,56,30.55,30.26,4,1,6,0.00
2013-2-16,46,38,32,37,32,27,85,78,66,30.25,29.90,16,6,26,0.01
2013-2-17,43,35,29,30,25,20,88,68,48,30.12,29.94,15,6,18,0.01
2013-2-18,40,36,30,24,22,20,71,59,47,30.11,29.78,8,2,17,0.00
2013-2-19,35,31,28,30,27,22,89,85,62,29.89,29.71,3,0,6,0.03
2013-2-20,36,31,29,28,25,19,89,77,64,30.01,29.89,9,2,14,0.04
2013-2-21,34,31,28,29,26,20,88,80,70,30.03,29.99,21,7,29,0.00
2013-2-22,36,33,31,32,29,26,87,84,80,30.00,29.63,33,16,45,0.01
2013-2-23,40,32,27,28,24,21,82,71,51,30.23,29.70,20,8,28,0.00
2013-2-24,36,32,26,28,24,21,83,74,65,30.34,30.07,15,5,24,0.00
2013-2-25,36,34,31,30,27,24,88,78,63,30.06,29.89,23,12,36,0.04
2013-2-27,43,40,35,30,28,27,76,64,57,30.28,30.24,19,5,19,0.00
2013-2-28,41,37,33,38,33,29,89,84,72,30.36,30.24,8,2,18,0.11
2013-3-1,50,46,40,42,40,38,90,79,63,30.38,30.25,22,12,38,0.00
2013-3-2,53,48,42,39,37,35,79,66,50,30.25,29.83,27,8,40,0.00
2013-3-3,43,36,30,36,19,15,79,51,36,30.16,29.82,16,5,24,0.00
2013-3-4,44,35,28,24,16,13,73,49,30,30.29,30.08,8,2,11,0.00
2013-3-5,39,34,29,27,20,15,75,57,42,30.08,29.83,14,2,14,0.00
2013-3-6,45,36,32,36,30,24,87,79,65,29.84,29.59,22,5,27,0.14
2013-3-7,41,35,32,32,29,27,88,78,60,30.07,29.84,20,7,33,0.04
2013-3-8,41,33,24,34,28,21,89,83,70,30.15,30.04,4,1,6,0.00
2013-3-9,49,40,32,31,29,24,81,65,39,30.40,30.15,8,2,10,0.00
2013-3-10,43,38,34,32,29,25,85,70,52,30.39,30.23,15,4,19,0.03
2013-3-11,48,40,32,32,25,16,84,60,31,30.32,30.22,13,2,18,0.00
2013-3-12,51,45,34,42,36,21,88,71,47,30.21,30.03,22,9,31,0.03
2013-3-13,54,49,45,42,39,35,82,68,60,30.15,30.04,21,6,32,0.02
2013-3-14,59,52,45,43,38,31,76,60,43,30.09,29.92,19,5,31,0.00
2013-3-15,53,47,42,40,36,31,80,66,54,30.10,29.96,19,10,30,0.00
2013-3-16,48,42,32,37,34,27,85,73,58,30.01,29.65,21,10,36,0.03
2013-3-17,44,34,28,27,21,13,81,62,38,30.02,29.66,22,10,31,0.00
2013-3-18,44,32,27,28,23,17,79,70,39,30.19,29.99,24,7,29,0.00
2013-3-19,46,38,26,28,19,11,72,50,25,30.28,29.84,15,2,21,0.01
2013-3-20,51,42,33,42,35,28,86,77,61,29.84,29.44,31,15,45,0.42
2013-3-21,42,32,27,28,22,18,84,70,41,30.03,29.75,25,10,36,0.00
2013-3-22,41,30,24,25,20,15,86,67,38,30.27,30.03,8,2,14,0.00
2013-3-23,39,30,23,23,19,14,80,63,42,30.37,30.27,9,1,12,0.00
2013-3-24,43,33,24,24,15,8,76,51,25,30.38,30.21,6,1,10,0.00
2013-3-25,48,37,27,24,18,11,63,47,35,30.21,30.00,5,1,7,0.00
2013-3-26,56,43,31,30,25,20,69,50,36,30.01,29.93,3,1,7,0.00
2013-3-27,53,45,37,37,32,26,72,62,49,29.97,29.92,4,1,8,0.00
2013-3-28,57,48,38,41,37,34,87,67,46,30.06,29.96,6,1,9,0.00
2013-3-29,59,51,45,40,34,29,75,55,36,30.16,30.06,8,3,16,0.00
2013-3-30,62,52,43,39,33,29,69,49,35,30.23,30.07,4,1,8,0.00
2013-3-31,66,54,41,39,33,30,73,46,28,30.06,29.86,6,1,11,0.00
2013-4-1,68,58,48,38,32,29,53,39,25,29.90,29.85,9,2,19,0.00
2013-4-2,61,53,45,43,39,35,78,59,44,30.00,29.91,16,7,26,0.00
2013-4-3,63,52,43,40,36,32,81,56,35,30.06,29.95,19,4,28,0.00
2013-4-4,55,49,41,46,39,32,85,70,49,29.96,29.67,25,5,30,0.08
2013-4-5,54,48,44,44,40,35,83,74,60,29.84,29.74,35,15,41,0.11
2013-4-6,52,46,43,39,36,29,82,67,43,29.82,29.74,30,14,39,0.04
2013-4-7,46,40,37,40,34,29,84,77,58,29.77,29.52,25,10,34,0.14
2013-4-8,45,38,33,34,29,24,88,72,51,30.23,29.75,8,2,16,0.06
2013-4-9,52,41,30,31,27,23,79,59,40,30.34,30.20,9,2,14,0.00
2013-4-10,55,48,44,46,34,29,83,60,47,30.20,29.76,26,7,38,0.03
2013-4-11,51,43,35,33,29,24,78,60,37,30.07,29.97,20,6,24,0.00
2013-4-12,52,40,34,34,29,23,86,67,36,30.06,29.57,21,6,29,0.20
2013-4-13,47,38,32,34,23,18,85,56,35,29.80,29.53,23,7,33,0.00
2013-4-14,44,36,29,29,26,20,85,70,50,29.93,29.80,18,3,27,0.00
2013-4-15,43,36,28,27,17,14,81,48,34,30.12,29.88,14,6,20,0.00
2013-4-16,44,35,28,15,12,9,48,39,27,30.36,30.13,15,5,20,0.00
2013-4-17,52,39,28,18,14,8,51,37,23,30.43,30.30,11,2,16,0.00
2013-4-18,51,44,36,34,25,12,67,47,31,30.31,30.13,18,7,28,0.00
2013-4-19,50,45,42,44,40,35,88,82,70,30.13,29.87,21,10,31,0.25
2013-4-20,56,47,40,41,34,28,79,62,39,30.06,29.91,25,11,33,0.00
2013-4-21,46,39,33,36,31,24,88,73,53,30.27,30.01,13,4,14,0.37
2013-4-22,50,39,28,29,19,13,82,49,26,30.49,30.27,9,3,14,0.00
2013-4-23,55,46,38,27,20,12,45,36,29,30.36,30.19,13,3,16,0.00
2013-4-24,60,50,40,31,25,21,55,39,29,30.25,29.92,14,4,19,0.00
2013-4-25,68,56,44,36,29,21,51,36,26,29.97,29.88,13,3,18,0.00
2013-4-26,70,61,49,42,34,28,52,38,27,30.09,29.98,16,5,21,0.00
2013-4-27,61,56,49,34,29,22,57,36,27,30.01,29.87,26,14,38,0.00
2013-4-28,57,50,44,37,32,25,68,52,36,30.01,29.79,24,11,30,0.00
2013-4-29,53,45,38,36,24,14,78,46,24,29.90,29.64,27,8,37,0.02
2013-4-30,48,40,32,26,20,16,67,46,35,30.32,29.90,9,3,17,0.00
2013-5-1,56,45,32,28,21,17,67,42,25,30.58,30.33,7,1,11,0.00
2013-5-2,67,54,40,31,23,16,58,33,20,30.58,30.20,12,2,13,0.00
2013-5-3,66,58,50,37,32,20,52,37,25,30.20,30.10,8,3,13,0.00
2013-5-4,68,59,50,35,31,25,52,36,24,30.19,30.01,12,5,20,0.00
2013-5-5,73,63,50,35,30,26,43,30,21,30.01,29.78,12,3,15,0.00
2013-5-6,80,68,55,41,32,26,43,27,18,29.81,29.63,7,2,11,0.00
2013-5-7,81,70,56,44,35,27,48,28,21,29.76,29.66,11,2,14,0.00
2013-5-8,83,72,58,47,40,33,42,33,25,29.87,29.76,5,2,15,0.00
2013-5-9,84,72,59,50,41,34,58,34,18,29.95,29.86,6,2,9,0.00
2013-5-10,86,73,59,49,40,34,55,32,20,30.04,29.94,6,2,12,0.00
2013-5-11,83,74,64,48,40,30,49,30,22,29.99,29.87,9,2,17,0.00
2013-5-12,78,71,62,49,44,36,54,39,27,29.88,29.81,17,5,22,0.00
2013-5-13,64,55,46,50,44,35,87,67,48,29.99,29.82,32,9,38,0.67
2013-5-14,60,50,41,36,30,22,66,47,29,30.11,30.00,12,3,19,0.00
2013-5-15,63,53,43,38,32,22,74,44,33,30.04,29.88,7,1,8,0.00
2013-5-16,60,53,46,46,42,35,87,68,49,29.89,29.81,4,1,7,0.02
2013-5-17,67,55,44,47,43,40,85,65,38,29.88,29.78,6,2,10,0.00
2013-5-18,56,51,45,44,40,37,85,68,53,30.08,29.88,17,4,17,0.11
2013-5-19,66,54,46,45,42,37,79,64,45,30.20,30.09,9,2,15,0.00
2013-5-20,71,60,50,48,43,40,75,55,36,30.20,29.80,5,1,7,0.00
2013-5-21,74,57,41,45,39,37,89,56,28,29.80,29.47,22,5,29,0.26
2013-5-22,47,40,35,38,34,31,89,81,66,30.00,29.68,14,4,19,0.05
2013-5-23,58,46,34,39,33,28,89,65,36,30.02,29.92,7,1,9,0.01
2013-5-24,52,45,39,40,36,30,85,71,52,29.99,29.89,12,4,16,0.00
2013-5-25,60,51,42,41,38,34,79,62,39,30.00,29.94,8,2,13,0.00
2013-5-26,68,56,43,44,38,35,77,55,31,29.95,29.82,12,2,18,0.00
2013-5-27,63,54,48,47,42,38,88,66,40,29.88,29.71,12,3,17,0.08
2013-5-28,61,52,47,49,45,38,89,76,54,29.79,29.70,9,3,14,0.05
2013-5-29,60,52,47,47,42,37,83,70,55,29.80,29.62,17,4,24,0.00
2013-5-30,58,50,43,44,38,33,82,65,48,30.07,29.80,18,9,25,0.01
2013-5-31,62,51,43,41,36,32,74,59,46,30.22,30.08,9,3,15,0.00
2013-6-5,77,74,69,48,45,42,40,36,31,29.89,29.83,11,6,15,0.00
2013-6-6,82,72,63,53,47,41,54,40,33,29.87,29.76,7,3,13,0.00
2013-6-7,77,70,62,50,42,32,50,37,25,29.78,29.69,19,8,27,0.00
2013-6-8,75,64,48,41,36,31,64,37,24,29.93,29.78,13,6,22,0.00
2013-6-9,73,65,55,39,34,23,53,33,21,29.81,29.73,20,8,29,0.00
2013-6-10,74,64,52,41,34,24,52,33,23,29.77,29.64,6,2,12,0.00
2013-6-11,66,60,52,42,34,26,58,39,28,29.92,29.67,15,5,21,0.00
2013-6-12,65,56,47,39,35,30,63,45,34,29.99,29.91,11,4,15,0.00
2013-6-13,65,56,48,40,35,29,65,47,32,30.00,29.94,12,3,17,0.00
2013-6-14,65,56,47,41,37,31,71,50,34,30.08,29.99,16,6,24,0.00
2013-6-15,78,64,49,45,37,32,64,39,22,30.00,29.87,6,2,9,0.00
2013-6-16,81,70,58,43,38,33,47,31,21,29.92,29.81,6,2,11,0.00
2013-6-17,82,70,59,50,45,33,64,42,23,29.87,29.69,10,2,14,0.01
2013-6-18,65,59,54,54,49,44,87,69,51,29.80,29.71,9,2,10,0.06
2013-6-19,54,50,47,48,46,43,88,84,74,29.81,29.69,16,4,21,0.24
2013-6-20,48,46,44,45,42,41,89,87,82,30.04,29.73,23,10,30,0.64
2013-6-21,62,52,45,48,45,42,89,78,55,30.10,30.03,6,1,11,0.12
2013-6-22,68,58,51,51,46,44,78,65,46,30.06,29.87,4,1,8,0.00
2013-6-23,74,62,50,51,46,42,80,57,36,29.87,29.55,7,1,11,0.00
2013-6-24,64,58,52,56,51,44,89,79,48,29.66,29.51,8,2,14,0.43
2013-6-25,65,58,51,55,50,45,89,74,63,29.81,29.66,12,3,18,0.18
2013-6-26,71,62,56,55,51,46,80,69,54,30.02,29.81,12,4,20,0.00
2013-6-27,80,67,57,61,55,50,81,66,47,30.09,30.02,6,2,9,0.00
2013-6-28,86,72,58,61,57,53,82,60,38,30.12,29.96,5,1,7,0.00
2013-6-29,77,70,63,60,56,48,79,61,36,30.01,29.85,17,4,22,0.09
2013-6-30,90,76,61,62,56,49,83,53,27,29.96,29.86,4,1,7,0.00
2013-7-1,94,82,68,64,57,50,61,43,28,29.87,29.75,7,2,12,0.00
2013-7-2,92,83,71,66,59,52,67,45,32,29.84,29.71,10,3,16,0.00
2013-7-3,87,79,71,56,48,35,46,34,22,29.82,29.72,21,6,29,0.00
2013-7-4,80,72,63,48,42,36,50,33,25,29.78,29.67,19,6,22,0.00
2013-7-5,78,69,57,48,42,35,53,39,28,29.76,29.66,9,4,25,0.00
2013-7-6,81,69,60,50,43,35,56,40,27,29.79,29.69,7,2,10,0.00
2013-7-7,86,74,61,48,42,37,48,33,23,29.76,29.66,6,2,9,0.00
2013-7-8,81,69,60,51,45,39,59,43,28,29.95,29.68,8,2,13,0.00
2013-7-9,86,72,57,53,45,39,69,40,25,30.02,29.86,6,1,10,0.00
2013-7-10,88,77,64,52,44,37,52,32,22,29.87,29.62,16,4,23,0.00
2013-7-11,79,70,61,44,34,20,42,29,14,29.73,29.62,27,8,29,0.00
2013-7-12,78,65,57,37,30,18,40,27,17,29.84,29.71,9,2,15,0.00
2013-7-13,77,66,56,40,36,32,48,34,24,30.03,29.84,6,2,13,0.00
2013-7-14,83,70,55,47,38,32,57,33,20,30.01,29.79,8,2,13,0.00
2013-7-15,82,71,60,42,34,27,41,27,17,29.85,29.79,6,2,11,0.00
2013-7-16,82,72,62,52,44,33,48,37,29,29.84,29.71,16,7,25,0.01
2013-7-17,90,78,66,58,51,43,70,40,25,29.91,29.70,14,3,27,0.02
2013-7-18,90,77,64,52,44,37,57,33,16,29.99,29.88,7,1,11,0.00
2013-7-19,91,79,64,51,42,37,49,28,17,29.91,29.77,7,1,10,0.00
2013-7-20,92,80,69,50,37,20,43,23,11,29.77,29.64,14,3,19,0.00
2013-7-21,91,78,63,43,37,29,37,23,16,29.70,29.61,16,4,19,0.00
2013-7-22,90,78,64,47,41,35,44,28,19,29.76,29.62,15,4,21,0.00
2013-7-23,95,82,71,47,40,33,35,23,14,29.86,29.75,7,2,13,0.00
2013-7-24,95,82,68,48,40,32,40,23,15,29.82,29.74,5,1,13,0.00
2013-7-25,95,82,69,47,38,25,36,21,13,29.86,29.77,9,2,10,0.00
2013-7-26,94,82,72,43,33,23,30,18,10,29.89,29.76,12,3,15,0.00
2013-7-27,88,75,64,39,33,28,34,22,12,29.83,29.69,16,4,25,0.00
2013-7-28,84,72,59,43,37,27,47,29,19,29.75,29.67,9,2,13,0.00
2013-7-29,85,72,59,44,39,34,46,31,21,29.80,29.71,6,1,12,0.00
2013-7-30,88,75,60,49,40,35,49,30,18,29.94,29.80,5,2,10,0.00
2013-7-31,83,74,61,46,40,35,46,30,20,29.96,29.81,9,2,15,0.00
2013-8-1,76,66,56,52,46,39,83,51,29,29.82,29.74,9,3,14,0.17
2013-8-2,59,56,54,54,52,50,89,85,78,30.02,29.80,13,4,17,0.95
2013-8-3,75,62,54,57,53,51,90,74,50,30.06,29.96,6,1,7,0.03
2013-8-4,82,69,56,57,52,48,83,58,32,29.97,29.85,9,2,17,0.00
2013-8-5,86,71,56,58,50,42,82,52,28,29.87,29.77,6,1,12,0.00
2013-8-6,88,75,62,58,48,42,66,41,24,29.86,29.74,4,1,7,0.00
2013-8-7,90,78,65,53,43,35,55,32,17,29.80,29.71,6,2,13,0.00
2013-8-8,88,77,63,53,44,33,51,33,19,29.81,29.72,5,2,7,0.00
2013-8-9,89,78,68,57,51,43,69,40,28,29.75,29.65,11,4,25,0.08
2013-8-10,88,76,64,58,51,45,73,43,25,29.80,29.70,15,3,26,0.05
2013-8-11,88,76,66,57,51,44,53,42,32,29.84,29.74,7,2,12,0.00
2013-8-12,87,76,67,56,51,45,60,43,29,29.85,29.77,6,1,8,0.00
2013-8-13,86,77,69,54,46,42,52,34,22,29.92,29.82,7,2,8,0.00
2013-8-14,89,77,63,57,49,44,65,40,22,29.83,29.70,13,2,13,0.00
2013-8-15,91,78,66,53,46,41,54,33,22,29.80,29.71,6,2,9,0.00
2013-8-16,86,76,69,51,46,42,47,35,25,29.84,29.77,5,2,10,0.00
2013-8-17,85,74,66,52,49,45,58,41,28,29.88,29.77,19,5,22,0.00
2013-8-18,84,72,60,48,44,40,55,37,25,29.94,29.84,10,4,18,0.00
2013-8-19,83,73,64,46,44,40,47,35,25,29.89,29.79,19,6,20,0.00
2013-8-20,82,70,57,41,36,24,52,30,17,29.93,29.81,11,2,15,0.00
2013-8-21,70,63,58,39,32,24,47,32,18,29.96,29.90,6,2,13,0.00
2013-8-22,88,82,74,46,44,38,35,26,22,29.80,29.67,25,5,34,0.00
2013-8-23,80,73,69,51,47,44,47,41,33,29.70,29.63,13,4,20,0.00
2013-8-24,83,72,61,50,47,42,63,43,28,29.75,29.61,8,2,11,0.03
2013-8-25,82,69,59,56,49,41,75,50,33,29.80,29.65,15,2,25,0.04
2013-8-26,80,67,55,52,48,42,84,53,29,29.87,29.73,11,2,19,0.00
2013-8-27,82,71,61,50,45,42,55,40,29,29.87,29.69,7,2,11,0.00
2013-8-28,85,73,61,51,46,41,64,40,25,29.77,29.64,14,3,21,0.00
2013-8-29,82,70,61,57,48,40,71,46,29,29.90,29.73,14,3,27,0.04
2013-8-30,79,69,59,53,46,37,76,47,27,30.02,29.89,18,5,28,0.13
2013-8-31,82,70,55,48,40,36,58,36,23,29.98,29.80,8,2,12,0.00
2013-9-1,91,74,58,49,44,39,55,35,19,29.80,29.66,9,2,15,0.00
2013-9-2,77,69,65,63,51,40,77,56,27,29.79,29.65,6,2,15,0.08
2013-9-3,82,72,64,58,54,51,71,54,39,29.88,29.79,13,2,17,0.00
2013-9-4,86,74,64,59,55,51,81,52,35,29.90,29.79,16,2,33,0.18
2013-9-5,76,69,63,62,59,56,86,72,60,29.88,29.71,12,3,16,0.28
2013-9-6,66,59,54,59,51,47,87,74,57,30.04,29.77,14,3,20,0.34
2013-9-7,70,59,53,53,50,49,88,73,50,30.05,29.96,6,1,11,0.00
2013-9-8,69,59,51,54,50,48,90,76,52,30.01,29.92,8,2,13,0.01
2013-9-9,80,70,60,54,50,45,67,51,34,29.94,29.84,8,2,12,0.00
2013-9-10,82,72,58,57,50,45,76,49,32,29.92,29.85,6,2,11,0.00
2013-9-11,88,76,67,54,50,45,55,41,27,29.94,29.85,10,4,14,0.00
2013-9-12,89,78,70,52,47,44,41,34,26,29.86,29.71,8,2,10,0.00
2013-9-13,88,76,64,54,48,43,55,38,26,29.72,29.60,4,1,8,0.00
2013-9-14,88,78,67,52,46,40,51,33,23,29.75,29.64,8,3,15,0.00
2013-9-15,86,76,60,55,46,41,81,36,26,29.69,29.48,26,3,34,0.07
2013-9-16,69,61,56,55,50,43,84,69,46,29.77,29.59,12,5,20,0.00
2013-9-17,68,57,50,50,47,45,88,70,47,29.75,29.59,17,3,23,0.28
2013-9-18,63,53,47,47,43,37,87,69,43,30.03,29.67,19,7,25,0.07
2013-9-19,68,58,49,46,38,34,76,49,30,30.08,29.87,11,3,18,0.00
2013-9-20,77,62,47,46,40,33,80,48,23,29.86,29.45,8,2,11,0.00
2013-9-21,64,58,54,45,41,36,72,53,42,29.61,29.46,19,6,25,0.00
2013-9-22,59,53,49,45,42,37,85,68,47,29.67,29.58,22,9,33,0.08
2013-9-23,57,52,46,45,42,38,85,70,51,29.89,29.67,16,9,28,0.00
2013-9-24,58,51,47,45,41,32,87,71,49,29.87,29.71,12,5,18,0.08
2013-9-25,50,46,43,44,41,38,87,82,73,29.85,29.73,7,1,13,0.04
2013-9-26,58,50,45,39,33,25,80,55,34,30.00,29.85,12,4,18,0.00
2013-9-27,51,46,43,41,37,27,85,71,42,29.99,29.89,25,7,28,0.01
2013-9-28,58,52,46,48,45,41,86,78,61,29.89,29.39,42,20,54,0.09
2013-9-29,53,47,43,47,41,38,85,78,69,29.63,29.38,33,18,48,0.14
2013-9-30,54,47,41,44,38,35,84,70,55,29.86,29.33,37,17,50,0.00
2013-10-1,51,45,40,40,36,34,83,73,55,30.10,29.87,23,10,29,0.02
2013-10-2,49,43,39,36,35,33,83,72,57,30.13,30.01,13,3,24,0.00
2013-10-3,55,46,38,35,31,27,82,57,36,30.38,30.02,10,3,15,0.00
2013-10-4,57,46,37,34,28,25,74,50,30,30.50,30.38,5,1,11,0.00
2013-10-5,63,50,41,36,28,24,66,44,28,30.41,30.23,4,1,7,0.00
2013-10-6,65,53,40,41,34,26,76,50,30,30.23,29.89,6,1,10,0.00
2013-10-7,59,53,43,41,33,26,78,47,30,29.90,29.74,23,12,30,0.10
2013-10-8,45,41,37,39,36,33,88,81,67,30.01,29.83,24,8,34,0.06
2013-10-9,54,43,36,42,37,32,89,79,56,30.06,29.89,8,2,12,0.01
2013-10-10,50,45,41,40,37,35,85,74,62,29.97,29.84,11,2,15,0.00
2013-10-11,52,44,37,39,33,28,87,65,41,30.10,29.97,3,1,5,0.00
2013-10-12,53,45,39,36,33,27,82,63,45,30.11,30.00,10,2,11,0.00
2013-10-13,53,45,37,36,30,25,77,57,35,30.26,30.11,6,1,9,0.00
2013-10-14,54,45,36,34,28,23,75,53,34,30.39,30.26,4,1,8,0.00
2013-10-15,55,44,33,36,28,24,80,55,39,30.39,30.16,3,1,7,0.00
2013-10-16,56,48,39,34,31,26,73,53,42,30.16,30.10,6,1,6,0.00
2013-10-17,54,45,35,40,36,31,86,70,57,30.25,30.13,4,1,5,0.00
2013-10-18,57,47,39,39,35,32,81,63,45,30.28,30.17,5,1,6,0.00
2013-10-19,59,49,42,38,34,31,76,57,43,30.16,30.05,6,1,7,0.00
2013-10-20,62,50,40,39,36,33,79,59,42,30.13,30.07,5,1,8,0.00
2013-10-21,62,52,41,43,39,36,82,62,46,30.18,30.12,4,1,5,0.00
2013-10-22,61,50,38,46,40,35,89,72,51,30.18,30.08,3,0,5,0.00
2013-10-23,60,47,36,47,41,33,89,79,59,30.15,30.07,3,0,4,0.01
2013-10-24,60,48,37,47,41,34,89,77,56,30.12,30.06,3,0,5,0.01
2013-10-25,57,45,36,46,40,33,89,81,65,30.25,30.11,3,0,4,0.00
2013-10-26,54,43,35,44,38,32,89,83,68,30.31,30.05,3,1,5,0.01
2013-10-27,47,42,32,42,36,23,89,79,52,30.05,29.76,22,4,27,0.13
2013-10-28,41,34,29,28,22,16,88,63,44,29.97,29.90,20,9,27,0.00
2013-10-29,46,37,31,23,19,16,56,49,38,30.03,29.95,15,3,20,0.00
2013-10-30,45,38,31,27,23,19,63,56,44,30.10,30.01,9,2,13,0.00
2013-10-31,53,45,41,38,33,26,78,62,51,30.11,30.02,17,6,23,0.00
2013-11-1,53,44,36,39,35,31,88,74,55,30.25,29.97,13,2,18,0.00
2013-11-2,48,43,34,42,35,30,86,72,54,29.96,29.54,31,11,44,0.33
2013-11-3,37,33,31,31,28,26,88,81,72,30.01,29.73,21,8,33,0.02
2013-11-4,35,32,27,28,25,20,88,77,58,30.21,30.00,8,2,10,0.00
2013-11-5,34,32,29,31,26,21,89,81,61,30.22,30.13,6,1,8,0.00
2013-11-6,35,33,31,32,30,29,89,89,87,30.40,30.22,3,1,6,0.04
2013-11-7,45,38,33,42,35,30,90,89,85,30.28,29.76,22,7,33,0.37
2013-11-8,44,40,36,36,34,32,88,80,64,30.16,29.91,17,9,27,0.00
2013-11-9,42,38,34,37,33,31,89,83,73,30.21,30.13,3,0,4,0.00
2013-11-10,41,38,36,37,35,33,90,88,85,30.26,30.12,3,0,4,0.00
2013-11-11,48,41,36,40,36,34,89,84,74,30.37,30.24,5,1,8,0.00
2013-11-12,45,40,37,40,36,33,89,85,78,30.36,30.21,5,1,7,0.01
2013-11-13,43,41,39,39,37,35,90,87,81,30.36,30.25,9,2,13,0.01
2013-11-14,43,39,34,38,36,31,89,85,81,30.24,29.91,9,2,11,0.00
2013-11-15,36,33,32,32,30,29,90,87,82,29.92,29.31,25,10,33,0.00
2013-11-16,37,34,32,31,29,25,89,81,68,29.66,29.20,29,11,47,0.06
2013-11-17,43,37,30,34,30,24,81,76,65,29.95,29.66,34,15,42,0.00
2013-11-18,46,43,40,37,32,28,84,67,50,29.89,29.61,35,20,45,0.01
2013-11-19,49,44,34,42,36,25,84,73,54,29.75,29.53,43,17,51,0.00
2013-11-20,34,26,21,24,6,-1,67,42,31,30.47,29.75,5,1,9,0.00
2013-11-21,32,24,15,14,9,3,73,54,41,30.76,30.47,8,1,10,0.00
2013-11-22,32,24,17,17,12,4,78,61,43,30.83,30.70,2,0,5,0.00
2013-11-23,36,27,20,19,16,14,79,66,49,30.69,30.39,5,1,6,0.00
2013-11-24,37,29,22,25,20,16,81,70,56,30.41,30.33,6,1,6,0.00
2013-11-25,37,31,26,27,24,20,81,76,66,30.49,30.41,3,1,5,0.00
2013-11-26,37,31,25,28,25,22,86,79,68,30.40,30.23,4,1,4,0.00
2013-11-27,38,30,24,30,26,20,89,84,72,30.24,30.14,3,0,4,0.00
2013-11-28,37,30,24,30,25,21,89,84,74,30.26,30.17,3,0,5,0.01
2013-11-29,33,29,24,30,26,21,89,88,84,30.33,30.24,5,1,6,0.00
2013-11-30,38,34,30,33,31,27,90,87,80,30.33,30.16,6,1,15,0.09
2013-12-1,45,41,37,40,37,33,88,84,77,30.16,29.60,33,14,41,0.14
2013-12-2,43,32,23,39,24,14,85,72,62,29.95,29.56,25,7,37,0.00
2013-12-3,23,20,17,14,2,-3,71,47,35,30.32,29.95,17,6,24,0.00
2013-12-4,22,17,13,5,0,-3,65,48,38,30.38,30.31,9,2,13,0.00
2013-12-5,15,13,11,9,7,3,82,77,63,30.36,30.33,8,1,13,0.00
2013-12-6,13,8,2,3,-4,-12,71,57,46,30.37,30.30,20,8,28,0.00
2013-12-7,11,5,1,-9,-12,-14,59,46,35,30.48,30.29,23,5,25,0.00
2013-12-8,12,7,2,0,-4,-10,78,62,49,30.64,30.46,9,1,13,0.00
2013-12-9,22,15,9,14,5,-2,70,65,59,30.63,30.43,15,2,19,0.00
2013-12-10,28,22,15,19,16,11,85,79,68,30.51,30.39,15,2,20,0.00
2013-12-11,32,26,21,23,20,17,84,77,67,30.50,30.37,4,1,6,0.00
2013-12-12,34,29,24,29,23,19,85,78,61,30.36,30.14,8,2,16,0.00
2013-12-13,34,31,29,32,28,26,90,87,82,30.45,30.17,9,2,13,0.01
2013-12-14,43,39,34,35,33,30,90,78,62,30.45,30.28,18,5,27,0.01
2013-12-15,46,42,39,36,33,29,80,71,64,30.28,30.17,22,11,33,0.00
2013-12-16,42,38,33,34,32,30,88,80,75,30.37,30.26,19,5,27,0.00
2013-12-17,46,38,30,31,28,26,88,67,46,30.30,29.95,15,3,25,0.00
2013-12-18,39,35,29,31,29,26,87,78,71,29.95,29.83,15,5,21,0.00
2013-12-19,28,24,20,19,15,11,77,69,62,30.23,30.12,7,1,9,0.00
2013-12-20,26,24,20,21,16,7,87,72,53,30.15,29.68,12,2,18,0.00
2013-12-21,29,26,22,27,22,19,89,87,86,30.14,29.82,3,0,5,0.00
2013-12-22,35,30,28,33,27,25,90,89,88,30.32,30.14,4,0,7,0.04
2013-12-23,41,37,32,38,34,27,90,87,76,30.31,29.99,28,10,42,0.27
2013-12-24,37,33,28,28,26,23,81,75,69,30.55,30.32,9,3,16,0.00
2013-12-25,33,28,20,28,23,17,89,82,71,30.55,30.44,4,1,8,0.00
2013-12-26,37,32,27,30,25,22,84,77,62,30.46,30.32,4,1,7,0.00
2013-12-27,41,32,27,29,26,23,88,79,52,30.32,30.05,30,3,41,0.00
2013-12-28,30,26,24,27,23,20,89,88,87,30.51,30.22,5,1,7,0.00
2013-12-29,34,29,24,28,25,21,89,84,75,30.50,30.27,7,1,14,0.00
2013-12-30,36,30,26,31,27,23,89,85,80,30.33,30.13,10,1,12,0.01
2013-12-31,39,32,29,31,29,26,89,85,71,30.36,30.10,8,1,16,0.02
2014-1-1,32,29,27,29,26,25,90,89,89,30.48,30.36,3,1,5,0.00
2014-1-2,47,37,28,32,29,26,90,76,48,30.38,29.72,31,7,50,0.01